GW6918 Weather Reports


time (UTC)temp
F
wind
direction
speed
knots
gust
knots
rain 1hr
in
rain 24hr
in
rain mn
in
humidity
%
barometer
mb
20260506015333 68 196 5.2 6.1 0.00 0.00 0.00 78 1015.7
20260506014829 68 191 6.1 7.0 0.00 0.00 0.00 79 1015.4
20260506014326 69 196 6.1 6.1 0.00 0.00 0.00 77 1015.6
20260506013823 69 181 5.2 7.0 0.00 0.00 0.00 77 1015.5
20260506013320 69 197 6.1 7.0 0.00 0.00 0.00 78 1015.6
20260506012817 69 190 6.1 6.1 0.00 0.00 0.00 77 1015.6
20260506012314 69 213 5.2 6.1 0.00 0.00 0.00 77 1015.6
20260506011811 69 192 6.1 7.0 0.00 0.00 0.00 76 1015.4
20260506011307 69 193 6.1 7.0 0.00 0.00 0.00 76 1015.5
20260506010805 69 194 5.2 7.0 0.00 0.00 0.00 76 1015.4
20260506010303 69 197 5.2 6.1 0.00 0.00 0.00 76 1015.3
20260506005800 69 188 6.1 7.0 0.00 0.00 0.00 75 1015.3
20260506005256 70 192 6.1 7.0 0.00 0.00 0.00 77 1015.2
20260506004752 70 195 7.8 8.7 0.00 0.00 0.00 75 1015.0
20260506004251 70 191 6.1 7.0 0.00 0.00 0.00 77 1015.1
20260506003746 70 177 7.0 7.8 0.00 0.00 0.00 76 1015.2
20260506003243 70 192 5.2 6.1 0.00 0.00 0.00 76 1015.2
20260506002739 70 194 5.2 6.1 0.00 0.00 0.00 78 1014.9
20260506002235 70 188 6.1 7.0 0.00 0.00 0.00 77 1014.8
20260506001731 70 192 5.2 6.1 0.00 0.00 0.00 76 1014.8
20260506001229 70 192 7.0 7.0 0.00 0.00 0.00 77 1014.8
20260506000725 70 192 7.0 7.0 0.00 0.00 0.00 75 1014.8
20260506000223 70 183 7.0 7.8 0.00 0.00 0.00 76 1014.5
20260505235720 71 178 7.0 7.8 0.00 0.00 0.00 75 1014.6
20260505235218 71 184 7.0 7.8 0.00 0.00 0.00 76 1014.7
20260505234714 71 205 7.0 7.8 0.00 0.00 0.00 75 1014.5
20260505234212 71 188 6.1 7.0 0.00 0.00 0.00 76 1014.7
20260505233708 71 195 7.0 7.0 0.00 0.00 0.00 74 1014.5
20260505233206 71 197 7.0 7.0 0.00 0.00 0.00 75 1014.5
20260505232703 71 201 6.1 7.0 0.00 0.00 0.00 75 1014.7
20260505232201 71 198 7.0 7.8 0.00 0.00 0.00 72 1014.5
20260505231657 71 193 7.8 8.7 0.00 0.00 0.00 74 1014.3
20260505231156 71 191 7.0 7.0 0.00 0.00 0.00 74 1014.5
20260505230654 72 193 7.0 7.0 0.00 0.00 0.00 76 1014.2
20260505230150 72 181 7.0 7.0 0.00 0.00 0.00 74 1013.9
20260505225646 72 183 7.8 8.7 0.00 0.00 0.00 74 1014.2
20260505225143 73 192 7.8 7.8 0.00 0.00 0.00 73 1014.0
20260505224639 72 196 8.7 8.7 0.00 0.00 0.00 71 1014.4
20260505224137 73 148 7.8 7.8 0.00 0.00 0.00 74 1014.4
20260505223634 72 186 6.1 6.1 0.00 0.00 0.00 74 1014.3
20260505223130 72 194 7.0 7.0 0.00 0.00 0.00 78 1014.2
20260505222626 72 186 5.2 5.2 0.00 0.00 0.00 78 1014.3
20260505222123 72 167 7.8 7.8 0.00 0.00 0.00 77 1014.2
20260505221620 72 186 6.1 7.0 0.00 0.00 0.00 78 1014.2
20260505221116 73 192 7.0 7.8 0.00 0.00 0.00 75 1014.4
20260505220614 73 193 7.0 7.8 0.00 0.00 0.00 74 1014.4
20260505220111 74 178 7.0 7.0 0.00 0.00 0.00 76 1014.1
20260505215609 74 180 7.0 7.8 0.00 0.00 0.00 72 1014.3
20260505215107 74 193 7.8 8.7 0.00 0.00 0.00 70 1014.2
20260505214605 74 194 7.0 7.0 0.00 0.00 0.00 70 1013.9
20260505214102 74 186 5.2 6.1 0.00 0.00 0.00 72 1014.0
20260505213559 73 183 6.1 6.1 0.00 0.00 0.00 78 1014.1
20260505213055 73 165 7.0 7.8 0.00 0.00 0.00 77 1014.1
20260505212552 73 186 7.8 7.8 0.00 0.00 0.00 78 1014.0
20260505212050 73 193 6.1 7.0 0.00 0.00 0.00 76 1014.0
20260505211546 73 170 7.0 7.0 0.00 0.00 0.00 78 1013.9
20260505211043 73 189 6.1 7.0 0.00 0.00 0.00 76 1013.9
20260505210539 73 186 5.2 6.1 0.00 0.00 0.00 76 1013.8
20260505210037 73 186 7.0 7.8 0.00 0.00 0.00 74 1013.7
20260505205535 74 186 6.1 7.0 0.00 0.00 0.00 75 1014.0
20260505205032 74 188 7.8 8.7 0.00 0.00 0.00 71 1014.1
20260505204529 74 186 5.2 6.1 0.00 0.00 0.00 70 1013.9
20260505204026 75 181 6.1 7.0 0.00 0.00 0.00 72 1014.1
20260505203523 75 183 7.0 7.8 0.00 0.00 0.00 71 1014.1
20260505203020 76 190 7.8 7.8 0.00 0.00 0.00 60 1014.2
20260505202516 75 197 7.8 8.7 0.00 0.00 0.00 63 1014.3
20260505202012 76 182 6.1 7.0 0.00 0.00 0.00 59 1014.3
20260505201510 76 181 7.0 7.0 0.00 0.00 0.00 58 1014.5
20260505201007 76 192 5.2 6.1 0.00 0.00 0.00 62 1014.5
20260505200505 77 188 7.0 7.8 0.00 0.00 0.00 60 1014.6
20260505200000 77 205 5.2 5.2 0.00 0.00 0.00 58 1014.6
20260505195457 76 200 4.3 6.1 0.00 0.00 0.00 57 1014.6
20260505194955 76 198 6.1 7.0 0.00 0.00 0.00 62 1014.5
20260505194452 76 200 5.2 6.1 0.00 0.00 0.00 58 1014.5
20260505193952 76 182 7.0 7.0 0.00 0.00 0.00 62 1015.0
20260505193450 76 192 6.1 7.0 0.00 0.00 0.00 58 1014.9
20260505192947 76 197 6.1 7.0 0.00 0.00 0.00 56 1015.1
20260505192445 77 199 7.8 8.7 0.00 0.00 0.00 58 1015.0
20260505191942 76 184 5.2 6.1 0.00 0.00 0.00 58 1015.2
20260505191441 77 188 7.0 7.8 0.00 0.00 0.00 58 1015.2
20260505190937 76 199 5.2 7.0 0.00 0.00 0.00 60 1015.3
20260505190433 76 189 6.1 7.0 0.00 0.00 0.00 60 1015.2
20260505185928 76 196 5.2 7.0 0.00 0.00 0.00 58 1015.3
20260505185426 76 190 7.8 7.8 0.00 0.00 0.00 59 1015.3
20260505184922 76 179 7.0 7.8 0.00 0.00 0.00 59 1015.3
20260505184419 76 211 3.5 5.2 0.00 0.00 0.00 62 1015.3
20260505183916 75 188 5.2 6.1 0.00 0.00 0.00 63 1015.3
20260505183413 75 200 6.1 6.1 0.00 0.00 0.00 60 1015.3
20260505182909 76 187 6.1 7.0 0.00 0.00 0.00 60 1015.2
20260505182406 75 208 5.2 5.2 0.00 0.00 0.00 60 1015.3
20260505181902 75 167 7.0 7.0 0.00 0.00 0.00 62 1015.5
20260505181400 75 194 6.1 7.0 0.00 0.00 0.00 64 1015.5
20260505180857 75 183 5.2 6.1 0.00 0.00 0.00 61 1015.5
20260505180353 75 167 7.0 7.0 0.00 0.00 0.00 63 1015.6
20260505175850 75 183 7.0 7.8 0.00 0.00 0.00 60 1015.6
20260505175346 75 190 4.3 5.2 0.00 0.00 0.00 62 1015.6
20260505174843 75 194 6.1 6.1 0.00 0.00 0.00 61 1015.5
20260505174340 76 190 6.1 7.0 0.00 0.00 0.00 59 1015.6
20260505173836 76 186 6.1 6.1 0.00 0.00 0.00 58 1015.4
20260505173333 75 190 4.3 5.2 0.00 0.00 0.00 60 1015.6
20260505172830 76 181 6.1 6.1 0.00 0.00 0.00 59 1015.7
20260505172328 76 182 2.6 2.6 0.00 0.00 0.00 58 1015.7
20260505171827 76 168 4.3 5.2 0.00 0.00 0.00 56 1015.9
20260505171324 75 191 5.2 6.1 0.00 0.00 0.00 57 1015.8
20260505170821 75 212 5.2 6.1 0.00 0.00 0.00 59 1015.9
20260505170318 75 194 3.5 3.5 0.00 0.00 0.00 58 1015.9
20260505165813 75 181 5.2 6.1 0.00 0.00 0.00 61 1016.0
20260505165309 75 187 5.2 6.1 0.00 0.00 0.00 61 1016.0
20260505164804 75 213 5.2 6.1 0.00 0.00 0.00 61 1016.0
20260505164302 74 206 4.3 5.2 0.00 0.00 0.00 64 1016.0
20260505163800 74 178 6.1 6.1 0.00 0.00 0.00 62 1016.2
20260505163258 74 196 4.3 5.2 0.00 0.00 0.00 62 1016.0
20260505162755 74 201 6.1 7.0 0.00 0.00 0.00 64 1015.9
20260505162252 74 189 5.2 6.1 0.00 0.00 0.00 65 1016.2
20260505161749 74 186 5.2 6.1 0.00 0.00 0.00 61 1016.3
20260505161247 74 198 4.3 3.5 0.00 0.00 0.00 61 1016.4
20260505160744 74 205 3.5 2.6 0.00 0.00 0.00 63 1016.5
20260505160242 74 203 4.3 3.5 0.00 0.00 0.00 64 1016.3
20260505153221 73 201 2.6 3.5 0.00 0.00 0.00 61 1016.4
20260505152718 73 210 2.6 2.6 0.00 0.00 0.00 60 1016.6
20260505152214 73 207 3.5 3.5 0.00 0.00 0.00 61 1016.2
20260505151709 73 205 3.5 3.5 0.00 0.00 0.00 64 1016.6
20260505151206 73 210 2.6 2.6 0.00 0.00 0.00 61 1016.5
20260505150702 73 202 1.7 2.6 0.00 0.00 0.00 63 1016.5
20260505150200 72 197 4.3 3.5 0.00 0.00 0.00 63 1016.7
20260505140633 70 191 2.6 2.6 0.00 0.00 0.00 70 1016.4
20260505140130 69 195 1.7 1.7 0.00 0.00 0.00 70 1016.6
20260505124543 65 202 2.6 2.6 0.00 0.00 0.00 76 1016.7
20260505124039 65 209 2.6 2.6 0.00 0.00 0.00 78 1016.7
20260505123536 65 210 1.7 1.7 0.00 0.00 0.00 78 1016.9
20260505123032 65 206 3.5 3.5 0.00 0.00 0.00 79 1016.5
20260505122529 65 200 1.7 1.7 0.00 0.00 0.00 78 1016.7
20260505122026 64 195 2.6 2.6 0.00 0.00 0.00 80 1016.6
20260505121523 64 199 1.7 1.7 0.00 0.00 0.00 79 1016.7
20260505121019 64 196 2.6 2.6 0.00 0.00 0.00 80 1016.5
20260505120516 63 199 1.7 1.7 0.00 0.00 0.00 81 1016.6
20260505120011 63 201 3.5 2.6 0.00 0.00 0.00 81 1016.3
20260505115506 63 205 1.7 1.7 0.00 0.00 0.00 82 1016.4
20260505115004 63 196 3.5 2.6 0.00 0.00 0.00 82 1016.6
20260505114501 62 202 3.5 3.5 0.00 0.00 0.00 84 1016.5
20260505113957 62 192 2.6 2.6 0.00 0.00 0.00 85 1016.5
20260505113454 62 194 2.6 2.6 0.00 0.00 0.00 85 1016.3
20260505112949 62 200 3.5 2.6 0.00 0.00 0.00 85 1016.4
20260505112447 61 194 2.6 2.6 0.00 0.00 0.00 85 1016.6
20260505111944 61 193 2.6 2.6 0.00 0.00 0.00 86 1016.4
20260505111438 61 182 1.7 1.7 0.00 0.00 0.00 86 1016.3
20260505110935 61 200 1.7 1.7 0.00 0.00 0.00 86 1016.1
20260505110431 61 197 3.5 2.6 0.00 0.00 0.00 85 1016.3
20260505101903 60 197 3.5 3.5 0.00 0.00 0.00 86 1015.6
20260505101402 60 200 3.5 2.6 0.00 0.00 0.00 88 1015.7
20260505100859 60 191 2.6 2.6 0.00 0.00 0.00 87 1015.7
20260505100355 60 194 2.6 2.6 0.00 0.00 0.00 87 1015.5
20260505095851 60 196 1.7 2.6 0.00 0.00 0.00 87 1015.6
20260505095349 60 197 2.6 2.6 0.00 0.00 0.00 87 1015.4
20260505094845 60 195 2.6 2.6 0.00 0.00 0.00 87 1015.3
20260505094342 60 198 3.5 3.5 0.00 0.00 0.00 87 1015.5
20260505093837 60 194 2.6 2.6 0.00 0.00 0.00 86 1015.3
20260505093335 60 191 2.6 2.6 0.00 0.00 0.00 86 1015.3
20260505092832 60 201 2.6 2.6 0.00 0.00 0.00 86 1015.2
20260505092330 60 193 2.6 2.6 0.00 0.00 0.00 87 1015.4
20260505091827 60 191 2.6 2.6 0.00 0.00 0.00 87 1015.3
20260505091325 60 193 2.6 2.6 0.00 0.00 0.00 87 1015.3
20260505090823 60 192 1.7 1.7 0.00 0.00 0.00 86 1015.2
20260505090321 60 196 2.6 2.6 0.00 0.00 0.00 86 1015.4
20260505085818 61 195 2.6 2.6 0.00 0.00 0.00 87 1015.2
20260505085316 61 191 3.5 3.5 0.00 0.00 0.00 86 1015.4
20260505084813 61 196 3.5 2.6 0.00 0.00 0.00 85 1015.2
20260505084312 61 190 2.6 2.6 0.00 0.00 0.00 85 1015.1
20260505083808 61 195 3.5 3.5 0.00 0.00 0.00 86 1015.1
20260505083306 61 188 2.6 2.6 0.00 0.00 0.00 85 1015.2
20260505082801 61 202 3.5 2.6 0.00 0.00 0.00 86 1015.0
20260505082259 61 198 3.5 2.6 0.00 0.00 0.00 86 1015.1
20260505081755 61 192 2.6 2.6 0.00 0.00 0.00 85 1015.1
20260505081252 61 192 2.6 2.6 0.00 0.00 0.00 84 1015.0
20260505080748 61 198 1.7 1.7 0.00 0.00 0.00 85 1015.1
20260505080244 61 197 2.6 2.6 0.00 0.00 0.00 86 1015.1
20260505075740 61 193 2.6 2.6 0.00 0.00 0.00 86 1015.0
20260505075237 61 193 2.6 2.6 0.00 0.00 0.00 84 1015.0
20260505074735 61 193 2.6 2.6 0.00 0.00 0.00 85 1014.8
20260505074232 61 194 2.6 2.6 0.00 0.00 0.00 84 1014.7
20260505073729 61 190 3.5 2.6 0.00 0.00 0.00 84 1015.0
20260505073227 61 193 3.5 3.5 0.00 0.00 0.00 85 1015.0
20260505072723 61 198 3.5 2.6 0.00 0.00 0.00 84 1014.7
20260505072219 61 198 3.5 3.5 0.00 0.00 0.00 83 1014.7
20260505071715 61 194 3.5 2.6 0.00 0.00 0.00 83 1014.7
20260505071213 62 198 2.6 2.6 0.00 0.00 0.00 83 1014.5
20260505070710 62 186 2.6 2.6 0.00 0.00 0.00 83 1014.5
20260505070206 62 192 3.5 3.5 0.00 0.00 0.00 82 1014.4
20260505065702 62 195 3.5 3.5 0.00 0.00 0.00 81 1014.6
20260505065159 62 198 2.6 1.7 0.00 0.00 0.00 81 1014.6
20260505064656 62 197 1.7 1.7 0.00 0.00 0.00 81 1014.5
20260505064154 62 194 2.6 2.6 0.00 0.00 0.00 81 1014.8
20260505063651 62 195 2.6 3.5 0.00 0.00 0.00 81 1014.8
20260505063147 62 188 2.6 2.6 0.00 0.00 0.00 80 1014.8
20260505062643 63 200 3.5 3.5 0.00 0.00 0.00 80 1015.0
20260505062141 63 199 3.5 3.5 0.00 0.00 0.00 81 1014.8
20260505061638 63 200 3.5 2.6 0.00 0.00 0.00 80 1014.7
20260505061136 63 204 3.5 3.5 0.00 0.00 0.00 79 1014.8
20260505060633 63 201 3.5 3.5 0.00 0.00 0.00 79 1015.0
20260505060130 63 194 2.6 3.5 0.00 0.00 0.00 79 1015.0
20260505055625 63 198 3.5 3.5 0.00 0.00 0.00 80 1015.0
20260505055122 63 197 3.5 2.6 0.00 0.00 0.00 80 1015.0
20260505054620 63 197 2.6 2.6 0.00 0.00 0.00 80 1014.9
20260505054118 63 198 3.5 2.6 0.00 0.00 0.00 79 1014.9
20260505053614 63 198 3.5 2.6 0.00 0.00 0.00 79 1014.9
20260505053111 63 198 1.7 2.6 0.00 0.00 0.00 79 1015.2
20260505052608 63 196 2.6 2.6 0.00 0.00 0.00 80 1015.0
20260505052106 63 195 2.6 2.6 0.00 0.00 0.00 79 1015.0
20260505051602 63 199 2.6 1.7 0.00 0.00 0.00 78 1015.1
20260505051100 63 198 2.6 2.6 0.00 0.00 0.00 79 1015.1
20260505050558 63 197 2.6 2.6 0.00 0.00 0.00 78 1015.1
20260505041526 64 201 2.6 2.6 0.00 0.00 0.00 75 1015.0
20260505041023 64 203 2.6 2.6 0.00 0.00 0.00 75 1014.9
20260505040520 64 196 2.6 2.6 0.00 0.00 0.00 77 1014.8
20260505040018 64 201 3.5 3.5 0.00 0.00 0.00 77 1014.9
20260505035513 65 208 3.5 5.2 0.00 0.00 0.00 76 1014.8
20260505035010 65 202 4.3 5.2 0.00 0.00 0.00 75 1014.9
20260505034507 65 196 4.3 5.2 0.00 0.00 0.00 75 1014.8
20260505034004 65 204 3.5 3.5 0.00 0.00 0.00 76 1014.9
20260505033500 65 193 3.5 3.5 0.00 0.00 0.00 74 1014.9
20260505032959 65 197 5.2 5.2 0.00 0.00 0.00 72 1014.9
20260505032456 65 184 3.5 3.5 0.00 0.00 0.00 74 1014.8
20260505031952 65 204 3.5 3.5 0.00 0.00 0.00 74 1014.8
20260505031449 65 199 3.5 3.5 0.00 0.00 0.00 75 1014.8
20260505030946 65 198 3.5 3.5 0.00 0.00 0.00 74 1014.6
20260505030442 65 205 4.3 3.5 0.00 0.00 0.00 75 1014.7
20260505025937 65 190 4.3 5.2 0.00 0.00 0.00 75 1014.7
20260505025435 66 204 4.3 5.2 0.00 0.00 0.00 74 1014.8
20260505024934 66 208 4.3 5.2 0.00 0.00 0.00 76 1014.5
20260505024431 66 199 4.3 5.2 0.00 0.00 0.00 75 1014.6
20260505023928 66 203 4.3 5.2 0.00 0.00 0.00 76 1014.6
20260505023425 66 194 4.3 5.2 0.00 0.00 0.00 76 1014.8
20260505022922 66 210 5.2 6.1 0.00 0.00 0.00 76 1014.6
20260505022420 66 211 5.2 5.2 0.00 0.00 0.00 74 1014.8
20260505021916 66 214 5.2 5.2 0.00 0.00 0.00 74 1014.6
20260505021413 66 194 4.3 5.2 0.00 0.00 0.00 75 1014.8
20260505020909 66 200 3.5 5.2 0.00 0.00 0.00 75 1014.7
20260505020404 66 182 3.5 5.2 0.00 0.00 0.00 74 1014.7
20260505015901 67 207 5.2 6.1 0.00 0.00 0.00 74 1014.7
20260505015358 67 206 3.5 3.5 0.00 0.00 0.00 74 1014.9